Overview Statistics Trail Chart Weather Telemetry Raw packets
 

This is the latest recevied weather packets stored in our database for station/object G0TQM-11. If no packets are shown the sender has not sent any weather packets the latest 10 day(s).

<< 19 20 21 22 23 24 25 >>
Time Temp. Humidity Pressure Rain* Wind** Luminosity Snow
1788075703 26.11° C 57% 1003.4 hPa - - - -
1788074502 23.89° C 67% 1003.5 hPa - - - -
1788073302 21.67° C 63% 1003.5 hPa - - - -
1788072102 21.67° C 67% 1003.4 hPa - - - -
1788070902 21.11° C 71% 1003.4 hPa - - - -
1788069702 20.56° C 71% 1003.4 hPa - - - -
1788068502 20° C 71% 1003.3 hPa - - - -
1788067302 20° C 70% 1003.1 hPa - - - -
1788066101 20° C 70% 1003.1 hPa - - - -
1788064901 20.56° C 71% 1003.2 hPa - - - -
1788063701 20.56° C 72% 1003.1 hPa - - - -
1788062501 20° C 71% 1003 hPa - - - -
1788061301 20° C 71% 1003.2 hPa - - - -
1788060101 20° C 70% 1003 hPa - - - -
1788058900 19.44° C 71% 1003.1 hPa - - - -
1788057700 19.44° C 71% 1003 hPa - - - -
1788056500 19.44° C 70% 1003 hPa - - - -
1788055300 19.44° C 70% 1003 hPa - - - -
1788054099 20° C 70% 1002.9 hPa - - - -
1788052908 19.44° C 71% 1002.8 hPa - - - -
1788051708 20° C 71% 1002.7 hPa - - - -
1788050508 19.44° C 71% 1002.7 hPa - - - -
1788049308 19.44° C 71% 1002.6 hPa - - - -
1788048108 19.44° C 72% 1002.4 hPa - - - -
1788046907 19.44° C 72% 1002.3 hPa - - - -

* Rain since midnight (hover to see other rain measurements)
** Current wind speed in m/s (hover to see current wind gust speed)